Tracking 17155 objects as of 28-July-2015
HD Live streaming from Space Station

ATLAS CENTAUR R/B

Track ATLAS CENTAUR R/B now!
ATLAS CENTAUR R/B is classified as:


NORAD ID: 10976
Int'l Code: 1978-068B
Perigee: 631.1 km
Apogee: 36,226.4 km
Inclination: 21.7 °
Period: 647.8 minutes
Semi major axis: 24799 km
RCS: 16.8333 m2 (large)
Launch date: June 29, 1978
Source: United States (US)

Note: This is a ROCKET BODY
Your satellite tracking list
Your tracking list is empty





NASA's NSSDC Master Catalog

Two Line Element Set (TLE):
1 10976U 78068B   15208.07580508 -.00000210  00000-0 -93796-3 0  9993
2 10976 021.7343 079.9290 7176558 196.0219 354.6064 02.22296619300873

Source of the keplerian elements: AFSPC

N2YO: 359